• In Deutschland
  • Länderverzeichnis
  • Für 7 Tage
  • Wassertemperatur
  • Satellitenkarten
  • Wetterkarte
  • Widgets
  • user-avatar
    Anmelden

    Stündliche Wetter Bad Westernkotten

    Heute, 17 Dezember, Sonntag

    Zeit Temperatur Niederschläge Wind Luftdruck Luftfeuchtigkeit
    00:00 -2°C° 0,1 mm 4 m/S 737 mmHg 92%
    01:00 -2°C° 0,1 mm 4 m/S 738 mmHg 93%
    02:00 -2°C° 0,1 mm 4 m/S 738 mmHg 93%
    03:00 -2°C° 0,1 mm 4 m/S 738 mmHg 94%
    04:00 -1°C° 0,1 mm 3 m/S 739 mmHg 94%
    05:00 -1°C° 0 mm 3 m/S 739 mmHg 94%
    06:00 -1°C° 0 mm 3 m/S 740 mmHg 94%
    07:00 -1°C° 0 mm 3 m/S 740 mmHg 94%
    08:00 -1°C° 0 mm 3 m/S 740 mmHg 93%
    09:00 -1°C° 0 mm 3 m/S 741 mmHg 92%
    10:00 -1°C° 0 mm 3 m/S 742 mmHg 92%
    11:00 0°C° 0 mm 3 m/S 742 mmHg 90%
    12:00 +1°C° 0 mm 3 m/S 742 mmHg 88%
    13:00 +1°C° 0 mm 3 m/S 742 mmHg 86%
    14:00 +1°C° 0 mm 3 m/S 743 mmHg 88%
    15:00 +1°C° 0 mm 2 m/S 743 mmHg 90%
    16:00 +1°C° 0 mm 2 m/S 743 mmHg 93%
    17:00 -1°C° 0 mm 2 m/S 743 mmHg 93%
    18:00 -1°C° 0 mm 3 m/S 743 mmHg 94%
    19:00 -1°C° 0 mm 3 m/S 744 mmHg 94%
    20:00 -1°C° 0 mm 3 m/S 744 mmHg 94%
    21:00 -1°C° 0 mm 3 m/S 744 mmHg 93%
    22:00 0°C° 0 mm 3 m/S 744 mmHg 92%
    23:00 -1°C° 0 mm 4 m/S 743 mmHg 89%

    Morgen, 18 Dezember, Montag

    Zeit Temperatur Niederschläge Wind Luftdruck Luftfeuchtigkeit
    00:00 -1°C° 0 mm 4 m/S 743 mmHg 85%
    01:00 -1°C° 0 mm 5 m/S 742 mmHg 82%
    02:00 -1°C° 0,7 mm 5 m/S 742 mmHg 84%
    03:00 -1°C° 0,7 mm 5 m/S 741 mmHg 87%
    04:00 -1°C° 0,7 mm 5 m/S 740 mmHg 89%
    05:00 0°C° 0,8 mm 5 m/S 740 mmHg 91%
    06:00 0°C° 0,8 mm 4 m/S 740 mmHg 92%
    07:00 0°C° 0,8 mm 4 m/S 740 mmHg 94%
    08:00 0°C° 0,3 mm 4 m/S 740 mmHg 94%
    09:00 0°C° 0,3 mm 4 m/S 740 mmHg 93%
    10:00 +1°C° 0,3 mm 4 m/S 741 mmHg 92%
    11:00 +1°C° 0,1 mm 4 m/S 741 mmHg 92%
    12:00 +1°C° 0,1 mm 4 m/S 742 mmHg 91%
    13:00 +3°C° 0,1 mm 4 m/S 742 mmHg 90%
    14:00 +1°C° 0,1 mm 4 m/S 743 mmHg 91%
    15:00 +2°C° 0,1 mm 3 m/S 743 mmHg 91%
    16:00 +2°C° 0,1 mm 3 m/S 744 mmHg 92%
    17:00 +2°C° 0 mm 2 m/S 744 mmHg 93%
    18:00 +2°C° 0 mm 2 m/S 745 mmHg 93%
    19:00 +2°C° 0 mm 2 m/S 746 mmHg 94%
    20:00 +1°C° 0 mm 2 m/S 747 mmHg 94%
    21:00 +2°C° 0 mm 1 m/S 747 mmHg 94%
    22:00 +1°C° 0 mm 1 m/S 747 mmHg 94%
    23:00 +1°C° 0 mm 1 m/S 748 mmHg 94%

    übermorgen, 19 Dezember, Dienstag

    Zeit Temperatur Niederschläge Wind Luftdruck Luftfeuchtigkeit
    00:00 +1°C° 0 mm 1 m/S 748 mmHg 94%
    01:00 0°C° 0 mm 1 m/S 749 mmHg 94%
    02:00 0°C° 0 mm 1 m/S 749 mmHg 94%
    03:00 -2°C° 0 mm 2 m/S 749 mmHg 93%
    04:00 -2°C° 0 mm 2 m/S 749 mmHg 93%
    05:00 -2°C° 0 mm 2 m/S 750 mmHg 93%
    06:00 -2°C° 0 mm 2 m/S 750 mmHg 93%
    07:00 -2°C° 0 mm 2 m/S 750 mmHg 93%
    08:00 -1°C° 0 mm 2 m/S 751 mmHg 93%
    09:00 -1°C° 0 mm 2 m/S 751 mmHg 94%
    10:00 +1°C° 0 mm 2 m/S 751 mmHg 94%
    11:00 +2°C° 0 mm 2 m/S 751 mmHg 93%
    12:00 +1°C° 0 mm 3 m/S 751 mmHg 93%
    13:00 +2°C° 0 mm 3 m/S 751 mmHg 93%
    14:00 +2°C° 0 mm 3 m/S 751 mmHg 93%
    15:00 +2°C° 0 mm 3 m/S 751 mmHg 94%
    16:00 +2°C° 0 mm 3 m/S 751 mmHg 95%
    17:00 +2°C° 0 mm 3 m/S 751 mmHg 95%
    18:00 +2°C° 0 mm 3 m/S 751 mmHg 95%
    19:00 +1°C° 0 mm 3 m/S 751 mmHg 95%
    20:00 +1°C° 0 mm 3 m/S 751 mmHg 95%
    21:00 +1°C° 0 mm 3 m/S 751 mmHg 95%
    22:00 +1°C° 0 mm 3 m/S 751 mmHg 94%
    23:00 0°C° 0 mm 4 m/S 751 mmHg 95%

    20 Dezember, Mittwoch

    Zeit Temperatur Niederschläge Wind Luftdruck Luftfeuchtigkeit
    00:00 0°C° 0 mm 4 m/S 751 mmHg 95%
    01:00 +1°C° 0 mm 4 m/S 751 mmHg 95%
    02:00 +1°C° 0 mm 4 m/S 750 mmHg 95%
    03:00 +3°C° 0 mm 4 m/S 750 mmHg 96%
    04:00 +3°C° 0 mm 3 m/S 750 mmHg 96%
    05:00 +3°C° 0,1 mm 3 m/S 750 mmHg 96%
    06:00 +3°C° 0,1 mm 3 m/S 750 mmHg 96%
    07:00 +3°C° 0,1 mm 3 m/S 750 mmHg 97%
    08:00 +3°C° 0,1 mm 3 m/S 750 mmHg 97%
    09:00 +3°C° 0,1 mm 3 m/S 750 mmHg 97%
    10:00 +4°C° 0,1 mm 2 m/S 750 mmHg 97%
    11:00 +4°C° 0,1 mm 3 m/S 750 mmHg 97%
    12:00 +4°C° 0,1 mm 3 m/S 750 mmHg 97%
    13:00 +5°C° 0,1 mm 3 m/S 750 mmHg 97%
    14:00 +5°C° 0,1 mm 3 m/S 750 mmHg 97%
    15:00 +5°C° 0,1 mm 3 m/S 750 mmHg 97%
    16:00 +5°C° 0,1 mm 3 m/S 750 mmHg 97%
    17:00 +5°C° 0,1 mm 3 m/S 750 mmHg 97%
    18:00 +5°C° 0,1 mm 3 m/S 750 mmHg 97%
    19:00 +7°C° 0,1 mm 3 m/S 750 mmHg 97%
    20:00 +7°C° 0,1 mm 3 m/S 750 mmHg 97%
    21:00 +7°C° 0,1 mm 3 m/S 750 mmHg 97%
    22:00 +7°C° 0,1 mm 3 m/S 750 mmHg 97%
    23:00 +6°C° 0,1 mm 4 m/S 750 mmHg 97%

    21 Dezember, Donnerstag

    Zeit Temperatur Niederschläge Wind Luftdruck Luftfeuchtigkeit
    00:00 +6°C° 0,1 mm 4 m/S 750 mmHg 96%
    01:00 +7°C° 0,1 mm 4 m/S 750 mmHg 96%
    02:00 +7°C° 0 mm 4 m/S 750 mmHg 95%
    03:00 +7°C° 0 mm 4 m/S 750 mmHg 95%
    04:00 +6°C° 0 mm 4 m/S 749 mmHg 94%
    05:00 +6°C° 0 mm 4 m/S 749 mmHg 94%
    06:00 +6°C° 0 mm 4 m/S 749 mmHg 94%
    07:00 +6°C° 0 mm 4 m/S 749 mmHg 94%
    08:00 +6°C° 0,1 mm 5 m/S 749 mmHg 94%
    09:00 +6°C° 0,1 mm 5 m/S 749 mmHg 94%
    10:00 +6°C° 0,1 mm 5 m/S 749 mmHg 93%
    11:00 +7°C° 0,2 mm 5 m/S 749 mmHg 92%
    12:00 +7°C° 0,2 mm 5 m/S 749 mmHg 91%
    13:00 +7°C° 0,2 mm 6 m/S 748 mmHg 89%
    14:00 +7°C° 0 mm 6 m/S 748 mmHg 90%
    15:00 +7°C° 0 mm 5 m/S 748 mmHg 90%
    16:00 +6°C° 0 mm 5 m/S 747 mmHg 91%
    17:00 +7°C° 0,1 mm 5 m/S 747 mmHg 90%
    18:00 +7°C° 0,1 mm 5 m/S 747 mmHg 90%
    19:00 +7°C° 0,1 mm 5 m/S 747 mmHg 90%
    20:00 +7°C° 0,1 mm 5 m/S 746 mmHg 90%
    21:00 +7°C° 0,1 mm 5 m/S 746 mmHg 90%
    22:00 +7°C° 0,1 mm 5 m/S 745 mmHg 89%
    23:00 +7°C° 0,3 mm 6 m/S 744 mmHg 89%

    22 Dezember, Freitag

    Zeit Temperatur Niederschläge Wind Luftdruck Luftfeuchtigkeit
    00:00 +8°C° 0,3 mm 6 m/S 743 mmHg 88%
    01:00 +8°C° 0,3 mm 7 m/S 743 mmHg 88%
    02:00 +6°C° 0,6 mm 7 m/S 743 mmHg 86%
    03:00 +5°C° 0,6 mm 8 m/S 743 mmHg 85%
    04:00 +3°C° 0,6 mm 9 m/S 744 mmHg 83%
    05:00 +4°C° 0,1 mm 8 m/S 745 mmHg 82%
    06:00 +3°C° 0,1 mm 7 m/S 746 mmHg 80%
    07:00 +2°C° 0,1 mm 6 m/S 748 mmHg 78%
    08:00 +2°C° 0 mm 6 m/S 748 mmHg 79%
    09:00 +2°C° 0 mm 6 m/S 749 mmHg 80%
    10:00 +2°C° 0 mm 6 m/S 750 mmHg 80%
    11:00 +3°C° 0,1 mm 6 m/S 750 mmHg 79%
    12:00 +3°C° 0,1 mm 6 m/S 751 mmHg 77%
    13:00 +4°C° 0,1 mm 6 m/S 751 mmHg 76%
    14:00 +3°C° 0,1 mm 6 m/S 751 mmHg 78%
    15:00 +3°C° 0,1 mm 5 m/S 751 mmHg 79%
    16:00 +3°C° 0,1 mm 5 m/S 752 mmHg 81%
    17:00 +3°C° 0 mm 5 m/S 752 mmHg 83%
    18:00 +2°C° 0 mm 5 m/S 752 mmHg 85%
    19:00 +2°C° 0 mm 5 m/S 752 mmHg 87%
    20:00 +2°C° 0 mm 5 m/S 752 mmHg 87%
    21:00 +2°C° 0 mm 6 m/S 752 mmHg 88%
    22:00 +2°C° 0 mm 6 m/S 752 mmHg 88%
    23:00 +2°C° 0 mm 6 m/S 752 mmHg 87%
    Mehr zeigen

    XHprof extension not loaded